TIANWANG 1A (TW-1A)
1 40928U 15051D   19275.91999995 +.00003806 +00000-0 +93247-4 0  9995
2 40928 097.1380 304.8582 0012434 052.1619 023.8226 15.41275468225534
LAPAN A2
1 40931U 15052B   19271.94698784  .00000512  00000-0 -17733-4 0  9999
2 40931   5.9983  47.5009 0012559 161.1025 198.9569 14.76612721216403
LQSAT
1 40958U 15057A   19275.25639444 +.00000024 +00000-0 +11342-4 0  9996
2 40958 097.8891 341.5491 0016777 261.8020 098.1286 14.73090347214351
CHUBUSAT 2
1 41338U 16012B   19275.08666248 +.00000385 +00000-0 +23253-4 0  9998
2 41338 031.0024 194.9574 0013658 067.3311 292.8767 15.00186063198755
CHUBUSAT 3
1 41339U 16012C   19275.90877228 +.00000341 +00000-0 +19769-4 0  9991
2 41339 031.0106 187.6903 0013263 083.0987 277.1179 15.00359144198876
OUFTI-1
1 41458U 16025C   19275.83612999 +.00000913 +00000-0 +50356-4 0  9993
2 41458 098.1005 008.0771 0165808 000.6877 359.4545 15.06054271188548
E-STAR-2
1 41459U 16025D   19275.87830991 +.00001279 +00000-0 +69124-4 0  9991
2 41459 098.1009 007.7215 0167177 001.8404 358.3402 15.05675797188521
AAUSAT 4
1 41460U 16025E   19275.78534348 +.00002242 +00000-0 +11519-3 0  9995
2 41460 098.0961 009.1389 0156608 353.8928 006.0390 15.07654110188650
NUSAT 1
1 41557U 16033B   19275.59245987  .00001442  00000-0  56435-4 0  9996
2 41557  97.4153   2.4735 0012133 285.4040  74.5858 15.27406828186259
BEESAT 4
1 41619U 16040W   19275.21459958 +.00001478 +00000-0 +65101-4 0  9996
2 41619 097.3570 335.4234 0011713 021.0546 339.1170 15.23332262169929
PRATHAM
1 41783U 16059A   19275.60921342 +.00000033 +00000-0 +15635-4 0  9995
2 41783 098.0564 332.7914 0034567 052.5698 307.8641 14.63011424161032
ALSAT 1N
1 41789U 16059G   19275.91743663 +.00000059 +00000-0 +20119-4 0  9994
2 41789 098.0603 335.3215 0029079 041.2655 319.0724 14.64264387161198
NAYIF 1
1 42017U 17008BX  19275.62372065 +.00001623 +00000-0 +66387-4 0  9991
2 42017 097.3933 341.5838 0007184 144.1790 215.9932 15.25751770146077
MAX VALIER SAT
1 42778U 17036P   19275.63589214  .00000997  00000-0  46423-4 0  9995
2 42778  97.3435 330.9127 0011642 205.0774 154.9898 15.22157502126356
